QPF
0.09 0.07 0.07 0.06 0.06 0.07 0.04 0.04 0.04 0.04 0.05 0.06 0.07 0.07 0.05 0.04 0.04 0.05 0.06 0.08 0.09 0.08 0.08 0.09 0.08 0.08 0.11 0.11 0.09 0.09 0.09 0.07 0.07 0.07 0.06 0.05 0.07 0.08 0.10 0.08 0.07 0.06 0.05
0.06 0.05 0.04 0.05 0.06 0.06 0.04 0.03 0.04 0.04 0.05 0.10 0.08 0.08 0.07 0.07 0.07 0.07 0.08 0.09 0.09 0.09 0.08 0.08 0.07 0.06 0.07 0.07 0.07 0.08 0.11 0.09 0.08 0.09 0.09 0.07 0.08 0.09 0.10 0.12 0.15 0.12 0.07
0.06 0.05 0.05 0.06 0.07 0.06 0.04 0.03 0.03 0.03 0.04 0.10 0.08 0.06 0.05 0.07 0.08 0.08 0.08 0.07 0.08 0.08 0.09 0.07 0.06 0.05 0.05 0.05 0.04 0.04 0.06 0.06 0.05 0.06 0.08 0.08 0.09 0.08 0.09 0.08 0.10 0.12 0.08
0.07 0.06 0.05 0.06 0.07 0.08 0.05 0.03 0.02 0.02 0.03 0.06 0.08 0.08 0.07 0.08 0.08 0.08 0.08 0.07 0.07 0.06 0.05 0.05 0.05 0.05 0.05 0.04 0.03 0.03 0.03 0.03 0.04 0.05 0.04 0.04 0.05 0.06 0.05 0.05 0.05 0.06 0.05
0.06 0.04 0.05 0.06 0.07 0.06 0.05 0.02 0.01 0.01 0.01 0.03 0.08 0.10 0.08 0.08 0.09 0.10 0.08 0.06 0.05 0.04 0.03 0.02 0.02 0.03 0.04 0.03 0.02 0.01 0.02 0.02 0.03 0.03 0.03 0.02 0.03 0.03 0.03 0.03 0.03 0.04 0.03
0.05 0.05 0.05 0.06 0.08 0.05 0.04 0.03 0.02 0.01 0.02 0.02 0.04 0.07 0.07 0.06 0.09 0.10 0.08 0.04 0.03 0.02 0.02 0.02 0.01 0.02 0.03 0.02 0.02 0.02 0.02 0.02 0.02 0.02 0.02 0.01 0.01 0.02 0.02 0.02 0.03 0.03 0.03
0.06 0.06 0.05 0.05 0.08 0.07 0.05 0.03 0.03 0.02 0.02 0.02 0.03 0.04 0.05 0.06 0.07 0.06 0.04 0.02 0.02 0.01 0.01 0.01 0.01 0.01 0.01 0.01 0.01 0.01 0.01 0.02 0.03 0.02 0.01 0.01 0.01 0.01 0.01 0.01 0.01 0.02 0.03
0.05 0.06 0.07 0.05 0.07 0.06 0.05 0.03 0.03 0.03 0.03 0.04 0.03 0.03 0.03 0.05 0.05 0.04 0.02 0.01 0.01 0.01 0.01 0.01 0.01 0.01 0.01 0.01 0.01 0.01 0.01 0.02 0.02 0.01 0.01 0.01 0.02 0.02 0.02 0.02 0.02 0.01 0.02
0.05 0.05 0.05 0.05 0.05 0.04 0.03 0.03 0.03 0.03 0.03 0.02 0.02 0.03 0.03 0.03 0.04 0.04 0.03 0.02 0.01 0.01 0.01 0.01 0.01 0.01 0.01 0.01 0.01 0.01 0.01 0.01 0.01 0.01 0.01 0.01 0.02 0.02 0.02 0.01 0.01 0.01 0.01
0.03 0.03 0.05 0.05 0.04 0.04 0.03 0.03 0.03 0.03 0.03 0.02 0.03 0.05 0.06 0.06 0.05 0.04 0.03 0.02 0.02 0.02 0.02 0.02 0.02 0.01 0.01 0.01 0.01 0.01 0.01 0.01 0.01 0.01 0.01 0.01 0.01 0.01 0.01 0.01 0.01 0.01 0.01
0.04 0.04 0.06 0.06 0.05 0.04 0.03 0.03 0.02 0.02 0.03 0.03 0.03 0.05 0.05 0.06 0.05 0.05 0.04 0.03 0.02 0.02 0.02 0.02 0.02 0.02 0.01 0.01 0.01 0.01 0.01 0.02 0.02 0.01 0.01 0.01 0.00 0.00 0.01 0.00 0.00 0.01 0.01
0.04 0.04 0.07 0.07 0.06 0.05 0.03 0.03 0.04 0.03 0.02 0.02 0.01 0.02 0.02 0.03 0.03 0.03 0.02 0.02 0.02 0.01 0.01 0.01 0.02 0.02 0.02 0.02 0.02 0.02 0.02 0.02 0.02 0.01 0.01 0.00 0.00 0.01 0.01 0.01 0.00 0.00 0.00
0.04 0.05 0.07 0.08 0.07 0.06 0.05 0.03 0.04 0.04 0.02 0.02 0.01 0.01 0.01 0.01 0.01 0.01 0.01 0.01 0.01 0.00 0.00 0.01 0.01 0.02 0.02 0.02 0.02 0.02 0.02 0.02 0.01 0.01 0.00 0.00 0.01 0.01 0.01 0.01 0.00 0.00 0.00
0.04 0.04 0.06 0.07 0.06 0.05 0.05 0.04 0.03 0.02 0.01 0.01 0.01 0.01 0.01 0.01 0.01 0.01 0.01 0.01 0.00 0.00 0.00 0.00 0.01 0.01 0.01 0.01 0.02 0.02 0.02 0.02 0.01 0.01 0.01 0.00 0.00 0.01 0.01 0.01 0.01 0.01 0.01
0.05 0.05 0.06 0.05 0.04 0.04 0.04 0.03 0.03 0.02 0.01 0.01 0.01 0.01 0.00 0.01 0.02 0.02 0.01 0.00 0.00 0.01 0.00 0.00 0.00 0.00 0.00 0.00 0.00 0.00 0.01 0.01 0.01 0.01 0.01 0.00 0.00 0.00 0.01 0.01 0.02 0.01 0.01
0.04 0.07 0.06 0.05 0.05 0.04 0.04 0.03 0.03 0.02 0.02 0.01 0.01 0.01 0.01 0.01 0.01 0.01 0.01 0.01 0.01 0.01 0.00 0.00 0.00 0.00 0.00 0.00 0.00 0.00 0.00 0.00 0.01 0.01 0.02 0.01 0.01 0.01 0.00 0.01 0.01 0.01 0.01
0.05 0.07 0.07 0.04 0.05 0.06 0.04 0.03 0.03 0.02 0.02 0.01 0.01 0.01 0.01 0.01 0.01 0.01 0.01 0.01 0.01 0.01 0.00 0.00 0.00 0.00 0.00 0.00 0.00 0.00 0.00 0.00 0.01 0.02 0.02 0.02 0.01 0.01 0.01 0.01 0.01 0.01 0.01
0.07 0.09 0.07 0.05 0.04 0.05 0.04 0.03 0.03 0.03 0.02 0.01 0.01 0.01 0.01 0.01 0.01 0.01 0.01 0.01 0.01 0.01 0.00 0.00 0.00 0.00 0.00 0.01 0.01 0.00 0.01 0.01 0.02 0.02 0.02 0.02 0.02 0.02 0.01 0.01 0.01 0.01 0.01
0.12 0.15 0.12 0.08 0.07 0.05 0.04 0.03 0.02 0.02 0.03 0.03 0.02 0.02 0.02 0.02 0.01 0.01 0.01 0.01 0.01 0.01 0.01 0.01 0.00 0.00 0.01 0.01 0.01 0.01 0.01 0.01 0.01 0.02 0.02 0.02 0.02 0.02 0.02 0.02 0.02 0.02 0.01
0.15 0.18 0.17 0.12 0.07 0.06 0.05 0.03 0.02 0.02 0.02 0.03 0.03 0.03 0.03 0.03 0.02 0.02 0.02 0.02 0.02 0.02 0.01 0.01 0.01 0.01 0.01 0.01 0.01 0.01 0.01 0.01 0.01 0.02 0.02 0.02 0.02 0.02 0.02 0.02 0.02 0.02 0.02
0.10 0.14 0.14 0.09 0.06 0.05 0.04 0.03 0.02 0.03 0.03 0.02 0.02 0.03 0.03 0.02 0.02 0.03 0.03 0.02 0.02 0.03 0.03 0.02 0.02 0.02 0.02 0.01 0.01 0.01 0.01 0.02 0.02 0.02 0.02 0.02 0.02 0.02 0.02 0.02 0.02 0.03 0.03
0.06 0.07 0.07 0.06 0.05 0.05 0.03 0.02 0.02 0.02 0.02 0.02 0.01 0.02 0.03 0.02 0.02 0.02 0.02 0.02 0.02 0.01 0.02 0.02 0.02 0.02 0.02 0.02 0.02 0.02 0.01 0.01 0.02 0.02 0.02 0.03 0.02 0.02 0.03 0.03 0.03 0.03 0.02
0.06 0.04 0.05 0.04 0.04 0.03 0.03 0.02 0.02 0.01 0.02 0.02 0.01 0.01 0.01 0.01 0.01 0.01 0.01 0.02 0.01 0.02 0.01 0.01 0.01 0.02 0.02 0.02 0.01 0.01 0.02 0.02 0.02 0.03 0.03 0.04 0.05 0.04 0.04 0.04 0.05 0.05 0.04
0.07 0.04 0.03 0.04 0.03 0.03 0.02 0.01 0.01 0.01 0.01 0.01 0.01 0.01 0.00 0.00 0.01 0.01 0.01 0.01 0.01 0.01 0.01 0.01 0.01 0.01 0.01 0.01 0.00 0.01 0.02 0.02 0.04 0.05 0.06 0.06 0.07 0.07 0.06 0.06 0.05 0.06 0.05
0.06 0.05 0.03 0.03 0.02 0.02 0.01 0.01 0.01 0.01 0.01 0.01 0.01 0.01 0.01 0.01 0.01 0.01 0.01 0.00 0.00 0.01 0.01 0.01 0.01 0.01 0.01 0.01 0.01 0.01 0.02 0.02 0.03 0.03 0.04 0.04 0.05 0.06 0.06 0.05 0.05 0.05 0.05
0.05 0.04 0.04 0.03 0.02 0.02 0.01 0.01 0.01 0.00 0.00 0.00 0.01 0.01 0.01 0.01 0.01 0.01 0.01 0.01 0.01 0.01 0.01 0.01 0.01 0.01 0.01 0.01 0.01 0.02 0.02 0.01 0.01 0.02 0.02 0.02 0.03 0.03 0.04 0.05 0.05 0.04 0.04
MSLP
1003.71 1004.54 1005.48 1006.46 1007.42 1008.32 1009.12 1009.83 1010.46 1011.05 1011.61 1012.18 1012.78 1013.40 1014.04 1014.67 1015.28 1015.84 1016.34 1016.78 1017.15 1017.46 1017.73 1017.97 1018.18 1018.39 1018.58 1018.76 1018.92 1019.05 1019.14 1019.15 1019.07 1018.90 1018.61 1018.21 1017.71 1017.15 1016.56 1015.98 1015.45 1015.01 1014.68
1003.05 1003.87 1004.80 1005.79 1006.77 1007.71 1008.56 1009.32 1010.00 1010.62 1011.22 1011.82 1012.44 1013.08 1013.73 1014.39 1015.02 1015.60 1016.13 1016.58 1016.96 1017.28 1017.54 1017.76 1017.97 1018.16 1018.35 1018.54 1018.73 1018.90 1019.04 1019.11 1019.09 1018.97 1018.73 1018.36 1017.88 1017.32 1016.71 1016.10 1015.53 1015.05 1014.66
1002.53 1003.33 1004.26 1005.25 1006.25 1007.19 1008.06 1008.85 1009.56 1010.21 1010.84 1011.47 1012.11 1012.77 1013.45 1014.12 1014.76 1015.36 1015.90 1016.36 1016.74 1017.05 1017.31 1017.52 1017.72 1017.91 1018.11 1018.33 1018.55 1018.76 1018.95 1019.08 1019.12 1019.05 1018.85 1018.52 1018.07 1017.53 1016.92 1016.30 1015.71 1015.19 1014.76
1002.11 1002.92 1003.85 1004.83 1005.81 1006.76 1007.63 1008.42 1009.15 1009.82 1010.48 1011.13 1011.80 1012.48 1013.18 1013.86 1014.51 1015.12 1015.65 1016.10 1016.47 1016.77 1017.02 1017.23 1017.43 1017.63 1017.85 1018.08 1018.34 1018.59 1018.82 1018.99 1019.08 1019.06 1018.91 1018.62 1018.20 1017.68 1017.10 1016.49 1015.90 1015.37 1014.92
1001.75 1002.57 1003.49 1004.47 1005.44 1006.36 1007.22 1008.01 1008.74 1009.44 1010.12 1010.80 1011.50 1012.21 1012.92 1013.62 1014.27 1014.87 1015.39 1015.82 1016.17 1016.46 1016.69 1016.89 1017.09 1017.29 1017.53 1017.78 1018.06 1018.34 1018.60 1018.80 1018.92 1018.93 1018.82 1018.56 1018.18 1017.71 1017.16 1016.59 1016.03 1015.51 1015.06
1001.39 1002.23 1003.16 1004.12 1005.06 1005.97 1006.81 1007.60 1008.34 1009.05 1009.76 1010.48 1011.21 1011.95 1012.68 1013.38 1014.04 1014.62 1015.12 1015.53 1015.85 1016.11 1016.33 1016.52 1016.71 1016.92 1017.16 1017.43 1017.72 1018.01 1018.27 1018.49 1018.62 1018.64 1018.54 1018.32 1017.98 1017.55 1017.05 1016.53 1016.01 1015.53 1015.11
1000.98 1001.84 1002.78 1003.73 1004.66 1005.55 1006.38 1007.17 1007.92 1008.65 1009.39 1010.15 1010.91 1011.68 1012.43 1013.15 1013.80 1014.37 1014.85 1015.23 1015.53 1015.77 1015.97 1016.15 1016.33 1016.54 1016.78 1017.04 1017.33 1017.61 1017.86 1018.06 1018.18 1018.20 1018.10 1017.90 1017.59 1017.20 1016.76 1016.29 1015.84 1015.41 1015.03
1000.50 1001.39 1002.33 1003.29 1004.21 1005.09 1005.92 1006.71 1007.48 1008.24 1009.01 1009.80 1010.60 1011.40 1012.17 1012.90 1013.55 1014.11 1014.57 1014.94 1015.23 1015.45 1015.64 1015.82 1016.00 1016.20 1016.43 1016.68 1016.95 1017.20 1017.42 1017.59 1017.68 1017.67 1017.56 1017.36 1017.07 1016.71 1016.32 1015.92 1015.52 1015.16 1014.83
999.96 1000.88 1001.83 1002.79 1003.71 1004.59 1005.43 1006.24 1007.03 1007.82 1008.62 1009.45 1010.27 1011.09 1011.88 1012.61 1013.26 1013.82 1014.29 1014.65 1014.94 1015.17 1015.37 1015.55 1015.74 1015.94 1016.16 1016.40 1016.64 1016.85 1017.03 1017.15 1017.20 1017.15 1017.02 1016.81 1016.52 1016.19 1015.84 1015.48 1015.13 1014.83 1014.56
999.42 1000.34 1001.30 1002.26 1003.20 1004.09 1004.94 1005.77 1006.58 1007.40 1008.23 1009.07 1009.91 1010.74 1011.54 1012.27 1012.93 1013.50 1013.97 1014.36 1014.66 1014.92 1015.14 1015.35 1015.56 1015.77 1016.00 1016.22 1016.43 1016.61 1016.75 1016.82 1016.81 1016.73 1016.57 1016.33 1016.05 1015.73 1015.39 1015.06 1014.76 1014.49 1014.27
998.92 999.83 1000.79 1001.76 1002.70 1003.60 1004.47 1005.32 1006.15 1006.99 1007.82 1008.67 1009.52 1010.34 1011.13 1011.87 1012.53 1013.11 1013.60 1014.02 1014.37 1014.67 1014.94 1015.19 1015.43 1015.67 1015.91 1016.13 1016.33 1016.48 1016.58 1016.61 1016.57 1016.45 1016.25 1016.00 1015.71 1015.39 1015.06 1014.75 1014.47 1014.23 1014.03
998.54 999.42 1000.36 1001.32 1002.26 1003.17 1004.06 1004.92 1005.76 1006.60 1007.43 1008.27 1009.09 1009.90 1010.67 1011.39 1012.05 1012.65 1013.17 1013.63 1014.03 1014.38 1014.71 1015.02 1015.31 1015.59 1015.85 1016.08 1016.27 1016.41 1016.49 1016.49 1016.43 1016.29 1016.08 1015.82 1015.53 1015.21 1014.89 1014.58 1014.30 1014.06 1013.87
998.33 999.15 1000.05 1000.98 1001.91 1002.83 1003.72 1004.58 1005.42 1006.25 1007.06 1007.87 1008.66 1009.43 1010.17 1010.87 1011.52 1012.12 1012.67 1013.17 1013.62 1014.04 1014.42 1014.79 1015.13 1015.44 1015.73 1015.98 1016.17 1016.32 1016.39 1016.40 1016.33 1016.20 1016.00 1015.75 1015.46 1015.15 1014.83 1014.53 1014.25 1014.01 1013.81
998.32 999.06 999.89 1000.78 1001.68 1002.58 1003.46 1004.32 1005.15 1005.95 1006.73 1007.49 1008.23 1008.95 1009.65 1010.32 1010.95 1011.55 1012.11 1012.64 1013.14 1013.60 1014.04 1014.45 1014.83 1015.18 1015.49 1015.75 1015.96 1016.12 1016.20 1016.23 1016.18 1016.07 1015.91 1015.69 1015.43 1015.15 1014.85 1014.56 1014.28 1014.03 1013.82
998.52 999.15 999.89 1000.71 1001.57 1002.44 1003.30 1004.13 1004.93 1005.71 1006.45 1007.16 1007.85 1008.51 1009.16 1009.78 1010.39 1010.98 1011.54 1012.09 1012.61 1013.10 1013.56 1014.00 1014.40 1014.76 1015.08 1015.35 1015.57 1015.73 1015.84 1015.90 1015.89 1015.84 1015.72 1015.56 1015.36 1015.12 1014.86 1014.59 1014.33 1014.08 1013.87
998.90 999.41 1000.04 1000.77 1001.57 1002.39 1003.21 1004.02 1004.79 1005.53 1006.22 1006.89 1007.52 1008.14 1008.73 1009.32 1009.89 1010.45 1011.01 1011.54 1012.06 1012.55 1013.01 1013.44 1013.83 1014.18 1014.49 1014.75 1014.97 1015.14 1015.28 1015.37 1015.42 1015.42 1015.38 1015.30 1015.17 1015.00 1014.80 1014.57 1014.34 1014.11 1013.90
999.44 999.80 1000.32 1000.95 1001.67 1002.43 1003.21 1003.97 1004.71 1005.41 1006.07 1006.69 1007.28 1007.84 1008.39 1008.94 1009.47 1010.01 1010.53 1011.04 1011.53 1012.00 1012.43 1012.83 1013.18 1013.49 1013.76 1014.00 1014.20 1014.37 1014.52 1014.65 1014.75 1014.83 1014.87 1014.87 1014.83 1014.74 1014.62 1014.46 1014.27 1014.08 1013.90
1000.09 1000.31 1000.71 1001.23 1001.86 1002.55 1003.27 1003.99 1004.68 1005.34 1005.97 1006.55 1007.10 1007.63 1008.14 1008.64 1009.14 1009.64 1010.13 1010.60 1011.05 1011.47 1011.85 1012.19 1012.49 1012.75 1012.97 1013.16 1013.33 1013.49 1013.65 1013.80 1013.95 1014.09 1014.21 1014.30 1014.35 1014.36 1014.32 1014.24 1014.12 1013.97 1013.83
1000.84 1000.93 1001.21 1001.62 1002.15 1002.76 1003.41 1004.07 1004.71 1005.33 1005.91 1006.46 1006.97 1007.47 1007.94 1008.41 1008.88 1009.33 1009.78 1010.21 1010.61 1010.97 1011.30 1011.57 1011.80 1011.99 1012.15 1012.29 1012.43 1012.57 1012.73 1012.90 1013.09 1013.28 1013.47 1013.64 1013.78 1013.88 1013.92 1013.92 1013.87 1013.80 1013.70
1001.69 1001.67 1001.83 1002.13 1002.56 1003.07 1003.64 1004.22 1004.80 1005.36 1005.89 1006.40 1006.87 1007.32 1007.76 1008.19 1008.62 1009.04 1009.44 1009.82 1010.17 1010.48 1010.74 1010.96 1011.13 1011.25 1011.36 1011.46 1011.56 1011.68 1011.83 1012.02 1012.23 1012.47 1012.71 1012.95 1013.16 1013.33 1013.46 1013.54 1013.56 1013.55 1013.52
1002.65 1002.54 1002.59 1002.79 1003.10 1003.51 1003.97 1004.47 1004.96 1005.45 1005.91 1006.34 1006.76 1007.16 1007.55 1007.94 1008.32 1008.69 1009.05 1009.38 1009.69 1009.95 1010.16 1010.33 1010.45 1010.53 1010.60 1010.67 1010.74 1010.85 1011.00 1011.19 1011.43 1011.69 1011.98 1012.27 1012.53 1012.77 1012.97 1013.11 1013.20 1013.25 1013.27
1003.76 1003.56 1003.52 1003.61 1003.81 1004.10 1004.44 1004.82 1005.21 1005.59 1005.95 1006.30 1006.64 1006.96 1007.28 1007.61 1007.93 1008.25 1008.56 1008.84 1009.10 1009.33 1009.50 1009.64 1009.73 1009.80 1009.85 1009.91 1009.98 1010.09 1010.24 1010.45 1010.70 1010.99 1011.30 1011.62 1011.93 1012.21 1012.45 1012.65 1012.80 1012.90 1012.97
1005.00 1004.74 1004.61 1004.59 1004.68 1004.84 1005.05 1005.29 1005.55 1005.80 1006.04 1006.27 1006.50 1006.73 1006.95 1007.19 1007.44 1007.69 1007.94 1008.18 1008.40 1008.59 1008.75 1008.87 1008.97 1009.04 1009.09 1009.16 1009.25 1009.37 1009.54 1009.77 1010.03 1010.34 1010.68 1011.02 1011.36 1011.67 1011.94 1012.18 1012.36 1012.50 1012.61
1006.34 1006.03 1005.83 1005.72 1005.69 1005.72 1005.79 1005.89 1005.99 1006.09 1006.19 1006.29 1006.38 1006.49 1006.60 1006.73 1006.89 1007.06 1007.24 1007.43 1007.60 1007.77 1007.91 1008.04 1008.14 1008.23 1008.31 1008.41 1008.53 1008.68 1008.88 1009.13 1009.42 1009.74 1010.10 1010.46 1010.81 1011.14 1011.44 1011.69 1011.90 1012.06 1012.19
1007.72 1007.38 1007.12 1006.92 1006.79 1006.69 1006.63 1006.58 1006.53 1006.48 1006.43 1006.38 1006.33 1006.29 1006.29 1006.30 1006.35 1006.43 1006.53 1006.66 1006.79 1006.93 1007.05 1007.18 1007.29 1007.41 1007.52 1007.66 1007.81 1008.01 1008.24 1008.52 1008.83 1009.18 1009.55 1009.92 1010.29 1010.63 1010.94 1011.21 1011.43 1011.60 1011.74
1009.07 1008.70 1008.40 1008.13 1007.90 1007.70 1007.52 1007.33 1007.15 1006.96 1006.76 1006.56 1006.38 1006.21 1006.08 1005.98 1005.92 1005.90 1005.92 1005.97 1006.05 1006.15 1006.26 1006.38 1006.50 1006.63 1006.78 1006.94 1007.14 1007.37 1007.63 1007.94 1008.28 1008.65 1009.04 1009.42 1009.80 1010.15 1010.47 1010.74 1010.97 1011.14 1011.28
Thickness
5722 5721 5720 5719 5719 5719 5717 5716 5715 5714 5712 5711 5710 5708 5706 5705 5704 5701 5699 5698 5696 5695 5694 5692 5691 5690 5689 5688 5688 5686 5684 5682 5678 5679 5681 5683 5683 5683 5682 5680 5678 5677 5675
5720 5718 5717 5717 5716 5715 5714 5714 5713 5711 5710 5708 5706 5705 5703 5701 5700 5698 5696 5694 5693 5691 5690 5689 5688 5688 5686 5684 5683 5682 5680 5679 5677 5674 5675 5676 5677 5677 5676 5674 5673 5672 5670
5716 5714 5713 5713 5712 5711 5710 5710 5709 5708 5706 5704 5703 5700 5699 5698 5696 5695 5693 5692 5690 5688 5687 5686 5685 5684 5682 5681 5680 5679 5678 5677 5675 5672 5670 5671 5671 5671 5669 5668 5667 5666 5664
5712 5711 5708 5708 5708 5708 5707 5706 5705 5704 5702 5700 5699 5697 5695 5694 5692 5691 5689 5688 5686 5684 5684 5683 5682 5681 5679 5678 5677 5676 5675 5672 5671 5668 5666 5665 5664 5664 5663 5660 5658 5659 5658
5707 5706 5705 5705 5705 5704 5703 5701 5700 5699 5697 5695 5694 5692 5691 5690 5689 5687 5685 5684 5681 5680 5679 5679 5679 5678 5678 5676 5675 5673 5671 5669 5666 5664 5661 5660 5658 5657 5655 5654 5652 5652 5651
5702 5701 5701 5700 5700 5699 5698 5696 5694 5693 5691 5690 5688 5686 5685 5685 5684 5683 5682 5679 5678 5676 5675 5674 5675 5674 5674 5673 5672 5671 5669 5666 5662 5660 5657 5655 5654 5653 5652 5650 5647 5644 5642
5696 5696 5696 5696 5694 5693 5693 5691 5689 5687 5686 5684 5683 5681 5679 5679 5679 5679 5678 5675 5674 5672 5671 5670 5671 5670 5668 5667 5666 5666 5665 5664 5662 5659 5655 5653 5651 5650 5648 5645 5642 5639 5638
5691 5690 5691 5690 5688 5687 5686 5684 5683 5682 5680 5678 5676 5675 5674 5674 5674 5673 5672 5671 5669 5668 5666 5665 5664 5663 5663 5661 5660 5658 5657 5657 5657 5655 5653 5651 5650 5649 5646 5643 5639 5636 5635
5686 5685 5685 5685 5683 5681 5679 5678 5677 5675 5673 5672 5671 5670 5668 5667 5668 5667 5666 5664 5663 5661 5661 5660 5659 5658 5657 5656 5654 5651 5650 5650 5651 5651 5650 5648 5646 5645 5642 5638 5633 5629 5626
5681 5681 5680 5680 5678 5676 5674 5673 5672 5670 5668 5667 5665 5664 5663 5662 5661 5661 5661 5658 5656 5655 5654 5654 5654 5653 5652 5650 5648 5646 5644 5643 5644 5644 5643 5642 5641 5639 5637 5634 5630 5625 5621
5677 5676 5675 5674 5673 5671 5669 5667 5666 5664 5662 5660 5658 5657 5656 5656 5655 5655 5654 5652 5650 5648 5648 5647 5647 5647 5646 5645 5644 5642 5640 5639 5637 5636 5635 5634 5634 5632 5631 5629 5627 5623 5619
5671 5670 5669 5668 5668 5667 5663 5661 5660 5658 5655 5653 5651 5649 5649 5649 5649 5648 5647 5647 5646 5643 5642 5641 5642 5642 5641 5640 5639 5638 5637 5635 5632 5630 5628 5627 5626 5625 5625 5624 5622 5621 5619
5664 5663 5662 5661 5660 5659 5657 5655 5653 5650 5648 5646 5644 5642 5641 5642 5641 5642 5641 5640 5639 5637 5636 5636 5636 5636 5635 5634 5634 5633 5631 5628 5626 5623 5621 5621 5621 5620 5619 5617 5616 5615 5613
5657 5655 5655 5653 5652 5652 5651 5650 5648 5644 5643 5641 5638 5636 5635 5634 5634 5634 5633 5632 5632 5631 5630 5629 5629 5629 5628 5628 5626 5625 5624 5622 5620 5618 5617 5617 5616 5614 5612 5611 5608 5607 5605
5650 5648 5647 5646 5645 5644 5644 5644 5643 5642 5641 5638 5636 5634 5631 5629 5630 5630 5628 5626 5625 5624 5622 5621 5620 5619 5618 5618 5618 5618 5617 5616 5614 5613 5612 5610 5609 5608 5606 5605 5602 5600 5598
5643 5641 5640 5639 5638 5638 5636 5635 5636 5636 5636 5636 5635 5633 5630 5630 5628 5626 5624 5623 5621 5618 5615 5613 5612 5611 5611 5611 5611 5611 5611 5610 5610 5608 5606 5604 5603 5602 5600 5599 5597 5595 5593
5637 5635 5634 5633 5632 5631 5631 5629 5627 5627 5628 5628 5628 5627 5626 5624 5623 5621 5619 5617 5614 5612 5609 5607 5606 5606 5606 5606 5605 5605 5605 5605 5605 5604 5602 5600 5599 5597 5595 5593 5591 5589 5588
5631 5630 5629 5628 5627 5626 5625 5625 5623 5622 5620 5619 5620 5620 5619 5618 5617 5615 5613 5609 5606 5604 5603 5603 5602 5602 5601 5601 5601 5601 5601 5600 5599 5597 5596 5595 5593 5592 5590 5588 5586 5584 5582
5624 5623 5623 5623 5623 5622 5621 5619 5618 5618 5616 5615 5613 5613 5613 5611 5610 5608 5606 5604 5603 5601 5600 5599 5599 5598 5598 5597 5596 5596 5594 5593 5592 5591 5590 5589 5588 5586 5584 5583 5581 5580 5577
5618 5619 5619 5618 5617 5616 5615 5614 5613 5612 5610 5609 5608 5608 5606 5604 5602 5601 5600 5600 5599 5598 5597 5596 5595 5594 5593 5592 5591 5590 5588 5586 5585 5584 5583 5583 5582 5581 5580 5578 5576 5574 5572
5612 5612 5613 5612 5612 5611 5610 5609 5607 5607 5606 5604 5604 5604 5603 5600 5599 5598 5597 5596 5595 5594 5594 5592 5591 5590 5588 5587 5586 5584 5582 5580 5579 5578 5577 5577 5577 5576 5575 5574 5572 5570 5568
5606 5606 5606 5606 5606 5605 5605 5604 5603 5602 5601 5600 5599 5599 5597 5596 5595 5594 5593 5592 5592 5591 5590 5588 5586 5584 5583 5582 5580 5578 5576 5574 5574 5573 5572 5571 5571 5570 5570 5568 5567 5565 5563
5600 5600 5600 5600 5600 5600 5599 5598 5597 5597 5597 5596 5595 5594 5592 5591 5591 5590 5589 5588 5587 5586 5585 5583 5581 5580 5578 5576 5575 5573 5571 5569 5568 5567 5566 5565 5565 5564 5563 5562 5561 5559 5557
5593 5593 5593 5593 5592 5592 5592 5591 5591 5591 5591 5591 5590 5589 5587 5587 5586 5585 5584 5583 5582 5581 5580 5578 5577 5575 5573 5571 5569 5567 5566 5564 5563 5562 5561 5560 5558 5558 5557 5555 5554 5553 5552
5586 5586 5586 5586 5586 5585 5585 5585 5584 5585 5585 5584 5583 5582 5582 5581 5580 5579 5578 5578 5576 5574 5573 5572 5570 5569 5567 5565 5563 5561 5560 5558 5557 5556 5555 5554 5552 5551 5550 5549 5548 5547 5545
5581 5581 5581 5581 5580 5579 5579 5578 5578 5578 5578 5578 5577 5576 5575 5575 5574 5573 5572 5571 5569 5568 5566 5564 5563 5561 5560 5557 5555 5554 5553 5552 5550 5549 5548 5547 5545 5544 5543 5541 5540 5539 5539